Regional Weather Roundup
Issued by NWS Cleveland, OH

Home | Current Version | Previous Version | Text Only | Print | Product List | Glossary Off
Versions: 1 2 3 4 5 6 7 8 9 10 11 12 13 14 15 16 17 18 19 20 21 22 23 24 25 26 27 28 29 30 31 32 33 34 35 36 37 38 39 40 41 42 43 44 45 46 47 48 49 50

000
ASUS41 KCLE 210202
RWRCLE
OHIO REGIONAL WEATHER ROUNDUP
NATIONAL WEATHER SERVICE CLEVELAND, OH
1000 PM EDT SUN APR 20 2014

NOTE: "FAIR" INDICATES FEW OR NO CLOUDS BELOW 12,000 FEET WITH NO
SIGNIFICANT WEATHER AND/OR OBSTRUCTIONS TO VISIBILITY.

OHZ001>008-015>018-024>027-034-035-043-044-210300-
   NORTHWEST OHIO

CITY           SKY/WX    TMP DP  RH WIND       PRES   REMARKS
DEFIANCE       PTCLDY    58  33  39 CALM      30.12S
FINDLAY        PTCLDY    59  38  45 CALM      30.12R
TOLEDO EXPRESS PTCLDY    56  39  53 E6        30.12S
TOLEDO EXEC    PTCLDY    49  36  61 E5        30.14S
LIMA           PTCLDY    62  34  35 S5        30.13R
$$

OHZ009>014-019>023-028>033-038-089-210300-
   NORTHEAST OHIO

CITY           SKY/WX    TMP DP  RH WIND       PRES   REMARKS
CLE-HOPKINS    PTCLDY    62  32  32 CALM      30.16S
CLE-LAKEFRONT  PTCLDY    50  43  77 CALM      30.12F
CUY CO. ARPT   MOCLDY    54  32  43 S7        30.15F
LORAIN-ELYRIA  PTCLDY    55  42  61 N5        30.15R
ASHTABULA      CLEAR     53  31  42 S5        30.16S
AKRON-CANTON   PTCLDY    65  22  19 CALM      30.16F
WOOSTER        PTCLDY    52  37  56 CALM      30.16S
MANSFIELD      PTCLDY    56  40  55 SE6       30.15F
YOUNGSTOWN     PTCLDY    61  18  18 SE5       30.17S
$$

OHZ042-051>053-060>062-070>072-077>081-210300-
  SOUTHWEST OHIO

CITY           SKY/WX    TMP DP  RH WIND       PRES   REMARKS
CINC-COVINGTON MOCLDY    65  36  34 CALM      30.12S
CINC-LUNKEN    MOCLDY    59  49  69 CALM      30.12S
HAMILTON       CLOUDY    59  49  69 CALM      30.13S
DAYTON         MOCLDY    64  36  35 CALM      30.14S
WRIGHT-PAT AFB MOCLDY    62  43  49 CALM      30.13S
DAYTON GENERAL CLOUDY    63  42  46 E3        30.12S
WILMINGTON     CLOUDY    60  40  47 CALM      30.14S
$$

OHZ036-037-039>041-045>050-054>059-063>069-073>076-082>088-210300-
  CENTRAL AND SOUTHEAST OHIO

CITY           SKY/WX    TMP DP  RH WIND       PRES   REMARKS
COLUMBUS       MOCLDY    65  39  38 CALM      30.14R
OSU AIRPORT    MOCLDY    61  38  42 E3        30.13S
BOLTON FIELD   NOT AVBL
RICKENBACK AFB NOT AVBL
NEWARK         PTCLDY    54  42  64 CALM      30.14R
MARION         MOCLDY    57  41  55 SE5       30.14S
LANCASTER      MOCLDY    53  42  66 CALM      30.15R
ZANESVILLE     PTCLDY    60  29  30 CALM      30.15R
NEW PHILLY     PTCLDY    56  35  45 CALM      30.16S
$$



USA.gov is the U.S. government's official web portal to all federal, state and local government web resources and services.